SDM6963 ULLI-LTFM

Flight info

Callsign SDM6963
Flight time N/A
Altitude 33000
Route SUGIN T873 NIRGI DCT OSKAD DCT UPERI DCT OMEZA DCT ABAGI B105 NIMTA/K0841F350 DCT MOLED DCT LIDUS DCT ZNL DCT DITEK/K0857F340 DCT GOTIK/K0852F360 DCT MEMZA DCT OKOBA DCT IRGID A944 LURAS DCT ODIRA/N0461F360 DCT CRM DCT TEPKI DCT NUGBA
Aircraft A320/M-SDE2E3FGHIRWXY/LB1

Departure

Time 2026-05-06 23:44
Airport Pulkovo Airport (ULLI)

Arrival

Time N/A
Airport İstanbul Airport (LTFM)
Time Latitude Longitude Altitude Speed Heading
2026-05-06 23:16 59.79642 30.26617 85 ft 0 kts 106°
2026-05-06 23:28 59.79642 30.26615 85 ft 1 kts 107°
2026-05-06 23:28 59.79646 30.26587 85 ft 2 kts 106°
2026-05-06 23:29 59.79651 30.26559 85 ft 2 kts 106°
2026-05-06 23:29 59.79655 30.26531 85 ft 2 kts 106°
2026-05-06 23:29 59.79659 30.26502 85 ft 2 kts 106°
2026-05-06 23:29 59.79663 30.26474 85 ft 2 kts 105°
2026-05-06 23:30 59.79666 30.26445 85 ft 2 kts 87°
2026-05-06 23:30 59.79664 30.26416 85 ft 2 kts 66°
2026-05-06 23:30 59.79656 30.26391 85 ft 2 kts 44°
2026-05-06 23:30 59.79644 30.26374 85 ft 2 kts 22°
2026-05-06 23:31 59.79629 30.26366 85 ft 2 kts 14°
2026-05-06 23:31 59.79615 30.26357 85 ft 2 kts 17°
2026-05-06 23:31 59.79612 30.26356 85 ft 0 kts 16°
2026-05-06 23:34 59.79614 30.26357 85 ft 1 kts 16°
2026-05-06 23:34 59.79627 30.26364 85 ft 3 kts 15°
2026-05-06 23:34 59.79663 30.26384 85 ft 7 kts 16°
2026-05-06 23:35 59.79718 30.26418 85 ft 8 kts 18°
2026-05-06 23:35 59.79780 30.26457 85 ft 10 kts 16°
2026-05-06 23:35 59.79850 30.26496 85 ft 11 kts 16°
2026-05-06 23:35 59.79927 30.26541 85 ft 11 kts 17°
2026-05-06 23:36 59.80000 30.26584 85 ft 9 kts 16°
2026-05-06 23:36 59.80067 30.26623 85 ft 10 kts 16°
2026-05-06 23:36 59.80142 30.26667 85 ft 11 kts 16°
2026-05-06 23:36 59.80218 30.26712 85 ft 9 kts 17°
2026-05-06 23:37 59.80286 30.26754 85 ft 10 kts 16°
2026-05-06 23:37 59.80355 30.26794 85 ft 9 kts 16°
2026-05-06 23:37 59.80389 30.26853 85 ft 7 kts 78°
2026-05-06 23:37 59.80381 30.26964 85 ft 8 kts 103°
2026-05-06 23:38 59.80363 30.27098 85 ft 11 kts 106°
2026-05-06 23:38 59.80339 30.27256 85 ft 13 kts 106°
2026-05-06 23:38 59.80312 30.27434 85 ft 13 kts 106°
2026-05-06 23:38 59.80284 30.27620 85 ft 14 kts 106°
2026-05-06 23:39 59.80255 30.27815 85 ft 14 kts 106°
2026-05-06 23:39 59.80226 30.28013 85 ft 15 kts 106°
2026-05-06 23:39 59.80195 30.28219 85 ft 15 kts 107°
2026-05-06 23:39 59.80164 30.28428 85 ft 16 kts 106°
2026-05-06 23:40 59.80132 30.28642 85 ft 16 kts 106°
2026-05-06 23:40 59.80100 30.28859 85 ft 16 kts 106°
2026-05-06 23:40 59.80067 30.29078 85 ft 16 kts 107°
2026-05-06 23:40 59.80034 30.29300 85 ft 16 kts 106°
2026-05-06 23:41 59.80000 30.29525 85 ft 17 kts 107°
2026-05-06 23:41 59.79967 30.29744 85 ft 13 kts 106°
2026-05-06 23:41 59.79944 30.29905 85 ft 12 kts 105°
2026-05-06 23:41 59.79951 30.30051 85 ft 10 kts 53°
2026-05-06 23:42 59.80002 30.30162 85 ft 11 kts 46°
2026-05-06 23:42 59.80061 30.30277 85 ft 12 kts 33°
2026-05-06 23:42 59.80118 30.30296 85 ft 4 kts 331°
2026-05-06 23:42 59.80131 30.30244 85 ft 5 kts 275°
2026-05-06 23:43 59.80136 30.30165 85 ft 6 kts 282°
2026-05-06 23:43 59.80165 30.29961 85 ft 35 kts 286°
2026-05-06 23:43 59.80299 30.29069 85 ft 99 kts 286°
2026-05-06 23:43 59.80547 30.27397 85 ft 152 kts 286°
2026-05-06 23:44 59.80870 30.25167 357 ft 173 kts 286°
2026-05-06 23:44 59.81193 30.22905 927 ft 174 kts 287°
2026-05-06 23:44 59.81524 30.20584 1498 ft 178 kts 288°
2026-05-06 23:44 59.81863 30.18191 2024 ft 183 kts 288°
2026-05-06 23:45 59.82229 30.15685 2339 ft 195 kts 289°
2026-05-06 23:45 59.82649 30.12985 2638 ft 210 kts 289°
2026-05-06 23:45 59.83093 30.10120 2942 ft 225 kts 288°
2026-05-06 23:45 59.83562 30.07009 3184 ft 245 kts 288°
2026-05-06 23:46 59.84052 30.03684 3781 ft 250 kts 287°
2026-05-06 23:46 59.84231 30.00260 4438 ft 254 kts 258°
2026-05-06 23:46 59.83403 29.97186 5114 ft 253 kts 220°
2026-05-06 23:46 59.81874 29.95617 5818 ft 249 kts 192°
2026-05-06 23:47 59.80174 29.94820 6495 ft 252 kts 192°
2026-05-06 23:47 59.78449 29.93980 7182 ft 255 kts 193°
2026-05-06 23:47 59.76712 29.93068 7890 ft 257 kts 193°
2026-05-06 23:47 59.74972 29.92785 8555 ft 258 kts 167°
2026-05-06 23:48 59.73359 29.94274 9214 ft 260 kts 139°
2026-05-06 23:48 59.72268 29.97224 9581 ft 275 kts 110°
2026-05-06 23:48 59.71722 30.01025 9991 ft 288 kts 105°
2026-05-06 23:48 59.71170 30.05156 10470 ft 299 kts 106°
2026-05-06 23:49 59.70600 30.09215 10763 ft 316 kts 107°
2026-05-06 23:49 59.70018 30.13538 11043 ft 332 kts 103°
2026-05-06 23:49 59.69625 30.18129 11321 ft 347 kts 98°
2026-05-06 23:49 59.69101 30.22879 11563 ft 360 kts 113°
2026-05-06 23:50 59.67836 30.27231 11863 ft 370 kts 126°
2026-05-06 23:50 59.64774 30.35690 12876 ft 381 kts 127°
2026-05-06 23:50 59.63287 30.40002 13397 ft 385 kts 126°
2026-05-06 23:51 59.61808 30.44458 13903 ft 390 kts 125°
2026-05-06 23:51 59.60332 30.49002 14397 ft 395 kts 125°
2026-05-06 23:51 59.58837 30.53668 14880 ft 399 kts 125°
2026-05-06 23:51 59.57373 30.58280 15337 ft 402 kts 125°
2026-05-06 23:52 59.55872 30.63019 15820 ft 405 kts 125°
2026-05-06 23:52 59.54368 30.67772 16279 ft 408 kts 127°
2026-05-06 23:52 59.52858 30.72543 16715 ft 411 kts 127°
2026-05-06 23:52 59.51327 30.77369 17148 ft 415 kts 127°
2026-05-06 23:53 59.49652 30.82635 17602 ft 418 kts 127°
2026-05-06 23:53 59.47993 30.87844 18023 ft 421 kts 127°
2026-05-06 23:53 59.46308 30.93124 18437 ft 425 kts 128°
2026-05-06 23:53 59.44588 30.98503 18864 ft 428 kts 128°
2026-05-06 23:54 59.43004 31.03442 19236 ft 431 kts 127°
2026-05-06 23:54 59.41409 31.08408 19625 ft 433 kts 128°
2026-05-06 23:54 59.39793 31.13430 20000 ft 436 kts 128°
2026-05-06 23:54 59.38164 31.18481 20378 ft 438 kts 128°
2026-05-06 23:55 59.36540 31.23510 20759 ft 440 kts 128°
2026-05-06 23:55 59.34899 31.28578 21114 ft 442 kts 128°
2026-05-06 23:55 59.33237 31.33702 21452 ft 444 kts 128°
2026-05-06 23:55 59.31595 31.38751 21793 ft 447 kts 128°
2026-05-06 23:56 59.29923 31.43882 22121 ft 449 kts 128°
2026-05-06 23:56 59.28233 31.49057 22432 ft 452 kts 128°
2026-05-06 23:56 59.26535 31.54246 22745 ft 454 kts 128°
2026-05-06 23:56 59.24810 31.59502 23056 ft 456 kts 129°
2026-05-06 23:57 59.23096 31.64712 23363 ft 458 kts 129°
2026-05-06 23:57 59.21370 31.69954 23677 ft 459 kts 130°
2026-05-06 23:57 59.19644 31.75184 23933 ft 462 kts 130°
2026-05-06 23:57 59.17882 31.80507 24202 ft 464 kts 130°
2026-05-06 23:58 59.16092 31.85906 24500 ft 466 kts 130°
2026-05-06 23:58 59.14303 31.91288 24775 ft 468 kts 130°
2026-05-06 23:58 59.12534 31.96596 25058 ft 469 kts 130°
2026-05-06 23:58 59.10712 32.02047 25352 ft 471 kts 130°
2026-05-06 23:59 59.08914 32.07414 25577 ft 473 kts 130°
2026-05-06 23:59 59.07067 32.12912 25836 ft 475 kts 130°
2026-05-06 23:59 59.05259 32.18291 26116 ft 476 kts 130°
2026-05-06 23:59 59.03429 32.23720 26442 ft 476 kts 130°
2026-05-07 00:00 59.01585 32.29173 26657 ft 478 kts 130°
2026-05-07 00:00 58.99688 32.34773 26891 ft 480 kts 130°
2026-05-07 00:00 58.97845 32.40196 27131 ft 481 kts 130°
2026-05-07 00:00 58.96588 32.43894 27302 ft 481 kts 130°
2026-05-07 00:01 58.94120 32.51138 27608 ft 482 kts 130°
2026-05-07 00:01 58.92262 32.56580 27873 ft 482 kts 130°
2026-05-07 00:01 58.90435 32.61916 28202 ft 480 kts 130°
2026-05-07 00:01 58.88598 32.67269 28488 ft 478 kts 131°
2026-05-07 00:02 58.86766 32.72596 28798 ft 477 kts 131°
2026-05-07 00:02 58.84935 32.77904 29092 ft 475 kts 131°
2026-05-07 00:02 58.83089 32.83242 29400 ft 474 kts 131°
2026-05-07 00:02 58.81265 32.88511 29666 ft 473 kts 131°
2026-05-07 00:03 58.79418 32.93825 29949 ft 472 kts 131°
2026-05-07 00:03 58.77588 32.99079 30235 ft 471 kts 131°
2026-05-07 00:03 58.75747 33.04358 30515 ft 470 kts 131°
2026-05-07 00:03 58.73914 33.09597 30782 ft 469 kts 131°
2026-05-07 00:04 58.72092 33.14799 31016 ft 468 kts 131°
2026-05-07 00:04 58.70247 33.20059 31265 ft 468 kts 132°
2026-05-07 00:04 58.68418 33.25255 31471 ft 468 kts 132°
2026-05-07 00:04 58.66570 33.30494 31661 ft 468 kts 132°
2026-05-07 00:05 58.64746 33.35646 31778 ft 470 kts 132°
2026-05-07 00:05 58.62882 33.40900 31877 ft 472 kts 132°
2026-05-07 00:05 58.61017 33.46150 32058 ft 472 kts 131°
2026-05-07 00:05 58.59169 33.51350 32242 ft 471 kts 132°
2026-05-07 00:06 58.57304 33.56579 32442 ft 471 kts 132°
2026-05-07 00:06 58.55432 33.61810 32576 ft 472 kts 132°
2026-05-07 00:06 58.53569 33.67010 32711 ft 472 kts 132°
2026-05-07 00:06 58.51699 33.72215 32857 ft 472 kts 133°
2026-05-07 00:07 58.49847 33.77366 33044 ft 471 kts 132°
2026-05-07 00:07 58.48007 33.82473 33048 ft 472 kts 132°
2026-05-07 00:07 58.44276 33.92787 33047 ft 473 kts 132°
2026-05-07 00:08 58.40551 34.03048 33037 ft 472 kts 132°
2026-05-07 00:08 58.36778 34.13387 33034 ft 473 kts 132°
2026-05-07 00:09 58.32991 34.23729 33027 ft 474 kts 131°
2026-05-07 00:09 58.29192 34.34069 33029 ft 475 kts 131°
2026-05-07 00:10 58.25413 34.44247 33026 ft 472 kts 133°
2026-05-07 00:10 58.21231 34.53755 33023 ft 467 kts 140°
2026-05-07 00:11 58.16519 34.62177 33019 ft 462 kts 147°
2026-05-07 00:11 58.11396 34.69408 33016 ft 456 kts 153°
2026-05-07 00:12 58.06138 34.76167 33011 ft 457 kts 152°
2026-05-07 00:12 58.00840 34.82993 33003 ft 458 kts 152°
2026-05-07 00:13 57.95546 34.89801 32996 ft 459 kts 152°
2026-05-07 00:13 57.90209 34.96636 33289 ft 458 kts 152°
2026-05-07 00:14 57.87602 34.99965 33511 ft 457 kts 152°
2026-05-07 00:14 57.85038 35.03235 33666 ft 457 kts 152°
2026-05-07 00:14 57.82385 35.06609 33812 ft 456 kts 152°
2026-05-07 00:14 57.79782 35.09917 33934 ft 457 kts 152°
2026-05-07 00:15 57.77140 35.13262 34076 ft 456 kts 152°
2026-05-07 00:15 57.74512 35.16587 34186 ft 457 kts 152°
2026-05-07 00:15 57.71872 35.19921 34309 ft 457 kts 152°
2026-05-07 00:15 57.69244 35.23235 34447 ft 456 kts 152°
2026-05-07 00:16 57.63915 35.29930 34630 ft 458 kts 152°
2026-05-07 00:16 57.61270 35.33245 34738 ft 458 kts 152°
2026-05-07 00:16 57.58628 35.36553 34853 ft 458 kts 152°
2026-05-07 00:17 57.56000 35.39836 34956 ft 458 kts 152°
2026-05-07 00:17 57.53350 35.43145 34960 ft 458 kts 152°
2026-05-07 00:17 57.48018 35.49773 34956 ft 458 kts 152°
2026-05-07 00:18 57.42743 35.56316 34960 ft 459 kts 152°
2026-05-07 00:18 57.37435 35.62871 34952 ft 459 kts 152°
2026-05-07 00:19 57.32113 35.69423 34951 ft 458 kts 153°
2026-05-07 00:19 57.26787 35.75955 34944 ft 459 kts 152°
2026-05-07 00:20 57.21453 35.82478 34946 ft 460 kts 152°
2026-05-07 00:20 57.16112 35.88980 34938 ft 460 kts 152°
2026-05-07 00:21 57.10744 35.95496 34943 ft 460 kts 152°
2026-05-07 00:21 57.05299 36.02084 34933 ft 460 kts 151°
2026-05-07 00:22 56.99970 36.08509 34927 ft 459 kts 151°
2026-05-07 00:22 56.94615 36.14947 34931 ft 459 kts 151°
2026-05-07 00:23 56.89277 36.21342 34927 ft 459 kts 151°
2026-05-07 00:23 56.83924 36.27727 34927 ft 460 kts 151°
2026-05-07 00:24 56.78546 36.34123 34929 ft 461 kts 151°
2026-05-07 00:24 56.73193 36.40478 34932 ft 461 kts 151°
2026-05-07 00:25 56.67997 36.46635 34932 ft 461 kts 151°
2026-05-07 00:25 56.62625 36.52980 34924 ft 461 kts 151°
2026-05-07 00:26 56.57192 36.59374 34917 ft 461 kts 151°
2026-05-07 00:26 56.51777 36.65729 34923 ft 461 kts 152°
2026-05-07 00:27 56.46487 36.71914 34922 ft 461 kts 152°
2026-05-07 00:27 56.41092 36.78201 34917 ft 460 kts 151°
2026-05-07 00:28 56.35695 36.84469 34918 ft 460 kts 152°
2026-05-07 00:28 56.30275 36.90740 34915 ft 461 kts 151°
2026-05-07 00:29 56.24841 36.97007 34915 ft 461 kts 151°
2026-05-07 00:30 56.13786 37.09694 34921 ft 460 kts 151°
2026-05-07 00:30 56.08293 37.15960 34921 ft 460 kts 151°
2026-05-07 00:31 56.02821 37.22187 34924 ft 459 kts 151°
2026-05-07 00:31 55.97327 37.28416 34934 ft 459 kts 151°
2026-05-07 00:32 55.91815 37.34644 34940 ft 459 kts 150°
2026-05-07 00:32 55.86372 37.40774 34941 ft 458 kts 150°
2026-05-07 00:33 55.80948 37.46861 34941 ft 458 kts 150°
2026-05-07 00:33 55.75425 37.53039 34941 ft 458 kts 150°
2026-05-07 00:34 55.69803 37.59304 34941 ft 457 kts 150°
2026-05-07 00:34 55.64167 37.65567 34941 ft 457 kts 151°
2026-05-07 00:35 55.58727 37.71593 34941 ft 456 kts 151°
2026-05-07 00:35 55.53299 37.77586 34941 ft 456 kts 151°
2026-05-07 00:36 55.47885 37.83542 34940 ft 457 kts 151°
2026-05-07 00:36 55.42428 37.89529 34942 ft 457 kts 151°
2026-05-07 00:37 55.36986 37.95518 34942 ft 457 kts 150°
2026-05-07 00:37 55.31611 38.01654 34942 ft 457 kts 149°
2026-05-07 00:38 55.28056 38.05719 34943 ft 456 kts 149°